When you browse on this site, cookies collect data to enhance your experience and personalize the content and advertising you see.
Visit our Privacy Policy to learn more. By continuing to use the site, you agree to this use of cookies and data.
  • în România
  • Lista ţărilor
  • Pe 7 zile
  • Temperatura apei
  • Hartă satelitară
  • Meteo pe hartă
  • Widget-uri
  • user-avatar
    Intrare

    Meteo pe oră la San Cristóbal

    Astăzi, 13 Decembrie, Joi

    Timp Temperatura Precipitaţii Vânt Presiune Umiditate
    00:00 +21°C° 0 mm 1 m/s 672 mmHg 79%
    01:00 +20°C° 0 mm 1 m/s 672 mmHg 79%
    02:00 +20°C° 0 mm 1 m/s 672 mmHg 79%
    03:00 +20°C° 0 mm 1 m/s 672 mmHg 79%
    04:00 +20°C° 0 mm 1 m/s 672 mmHg 79%
    05:00 +21°C° 0 mm 1 m/s 672 mmHg 77%
    06:00 +21°C° 0 mm 1 m/s 673 mmHg 75%
    07:00 +22°C° 0 mm 1 m/s 673 mmHg 73%
    08:00 +24°C° 0.1 mm 1 m/s 674 mmHg 68%
    09:00 +26°C° 0.1 mm 1 m/s 674 mmHg 63%
    10:00 +27°C° 0.1 mm 1 m/s 675 mmHg 58%
    11:00 +28°C° 0.2 mm 1 m/s 674 mmHg 56%
    12:00 +29°C° 0.2 mm 1 m/s 674 mmHg 54%
    13:00 +30°C° 0.2 mm 1 m/s 674 mmHg 52%
    14:00 +29°C° 0.3 mm 1 m/s 673 mmHg 55%
    15:00 +28°C° 0.3 mm 1 m/s 672 mmHg 58%
    16:00 +28°C° 0.3 mm 1 m/s 672 mmHg 60%
    17:00 +26°C° 0.4 mm 1 m/s 672 mmHg 66%
    18:00 +24°C° 0.4 mm 1 m/s 672 mmHg 72%
    19:00 +22°C° 0.4 mm 1 m/s 672 mmHg 78%
    20:00 +22°C° 0.2 mm 1 m/s 672 mmHg 79%
    21:00 +22°C° 0.2 mm 1 m/s 672 mmHg 79%
    22:00 +21°C° 0.2 mm 1 m/s 673 mmHg 79%
    23:00 +21°C° 0 mm 1 m/s 672 mmHg 80%

    Mâine, 14 Decembrie, Vineri

    Timp Temperatura Precipitaţii Vânt Presiune Umiditate
    00:00 +21°C° 0 mm 1 m/s 672 mmHg 80%
    01:00 +20°C° 0 mm 1 m/s 672 mmHg 80%
    02:00 +20°C° 0 mm 1 m/s 672 mmHg 80%
    03:00 +20°C° 0 mm 1 m/s 672 mmHg 79%
    04:00 +20°C° 0 mm 1 m/s 671 mmHg 78%
    05:00 +20°C° 0 mm 1 m/s 672 mmHg 75%
    06:00 +21°C° 0 mm 1 m/s 673 mmHg 72%
    07:00 +21°C° 0 mm 1 m/s 673 mmHg 69%
    08:00 +24°C° 0 mm 1 m/s 674 mmHg 62%
    09:00 +26°C° 0 mm 1 m/s 675 mmHg 55%
    10:00 +28°C° 0 mm 1 m/s 675 mmHg 49%
    11:00 +29°C° 0 mm 1 m/s 675 mmHg 48%
    12:00 +29°C° 0 mm 1 m/s 674 mmHg 48%
    13:00 +30°C° 0 mm 1 m/s 673 mmHg 47%
    14:00 +29°C° 0.1 mm 1 m/s 673 mmHg 49%
    15:00 +28°C° 0.1 mm 1 m/s 672 mmHg 52%
    16:00 +28°C° 0.1 mm 1 m/s 672 mmHg 54%
    17:00 +26°C° 0 mm 1 m/s 672 mmHg 60%
    18:00 +24°C° 0 mm 1 m/s 672 mmHg 66%
    19:00 +22°C° 0 mm 1 m/s 672 mmHg 72%
    20:00 +22°C° 0 mm 1 m/s 672 mmHg 72%
    21:00 +21°C° 0 mm 1 m/s 673 mmHg 73%
    22:00 +21°C° 0 mm 1 m/s 673 mmHg 73%
    23:00 +21°C° 0 mm 1 m/s 673 mmHg 74%

    Poimâine, 15 Decembrie, Sâmbătă

    Timp Temperatura Precipitaţii Vânt Presiune Umiditate
    00:00 +20°C° 0 mm 1 m/s 673 mmHg 75%
    01:00 +20°C° 0 mm 1 m/s 672 mmHg 76%
    02:00 +20°C° 0 mm 1 m/s 672 mmHg 77%
    03:00 +20°C° 0 mm 1 m/s 672 mmHg 78%
    04:00 +19°C° 0 mm 1 m/s 672 mmHg 79%
    05:00 +20°C° 0 mm 1 m/s 672 mmHg 75%
    06:00 +21°C° 0 mm 1 m/s 673 mmHg 71%
    07:00 +21°C° 0 mm 1 m/s 674 mmHg 67%
    08:00 +23°C° 0 mm 1 m/s 674 mmHg 61%
    09:00 +26°C° 0 mm 1 m/s 675 mmHg 55%
    10:00 +28°C° 0 mm 2 m/s 676 mmHg 49%
    11:00 +29°C° 0 mm 2 m/s 675 mmHg 46%
    12:00 +30°C° 0 mm 2 m/s 674 mmHg 43%
    13:00 +31°C° 0 mm 2 m/s 674 mmHg 41%
    14:00 +30°C° 0 mm 2 m/s 673 mmHg 43%
    15:00 +29°C° 0 mm 1 m/s 673 mmHg 45%
    16:00 +28°C° 0 mm 1 m/s 672 mmHg 47%
    17:00 +26°C° 0 mm 1 m/s 672 mmHg 54%
    18:00 +24°C° 0 mm 1 m/s 672 mmHg 62%
    19:00 +22°C° 0 mm 1 m/s 672 mmHg 70%
    20:00 +21°C° 0 mm 1 m/s 672 mmHg 70%
    21:00 +21°C° 0 mm 1 m/s 673 mmHg 71%
    22:00 +20°C° 0 mm 1 m/s 673 mmHg 72%
    23:00 +20°C° 0 mm 1 m/s 673 mmHg 72%

    16 Decembrie, Duminică

    Timp Temperatura Precipitaţii Vânt Presiune Umiditate
    00:00 +20°C° 0 mm 1 m/s 673 mmHg 73%
    01:00 +19°C° 0 mm 1 m/s 672 mmHg 73%
    02:00 +19°C° 0 mm 1 m/s 672 mmHg 72%
    03:00 +19°C° 0 mm 1 m/s 672 mmHg 70%
    04:00 +19°C° 0 mm 1 m/s 672 mmHg 69%
    05:00 +20°C° 0 mm 1 m/s 673 mmHg 68%
    06:00 +20°C° 0 mm 1 m/s 673 mmHg 67%
    07:00 +21°C° 0 mm 1 m/s 674 mmHg 66%
    08:00 +23°C° 0 mm 1 m/s 675 mmHg 60%
    09:00 +26°C° 0 mm 1 m/s 675 mmHg 54%
    10:00 +28°C° 0 mm 1 m/s 676 mmHg 48%
    11:00 +29°C° 0 mm 1 m/s 675 mmHg 47%
    12:00 +29°C° 0 mm 1 m/s 674 mmHg 46%
    13:00 +30°C° 0 mm 2 m/s 673 mmHg 45%
    14:00 +29°C° 0 mm 1 m/s 673 mmHg 45%
    15:00 +29°C° 0 mm 1 m/s 672 mmHg 46%
    16:00 +28°C° 0 mm 1 m/s 672 mmHg 47%
    17:00 +26°C° 0 mm 1 m/s 672 mmHg 55%
    18:00 +23°C° 0 mm 1 m/s 671 mmHg 63%
    19:00 +21°C° 0 mm 1 m/s 671 mmHg 71%
    20:00 +21°C° 0 mm 1 m/s 672 mmHg 71%
    21:00 +20°C° 0 mm 1 m/s 672 mmHg 71%
    22:00 +20°C° 0 mm 1 m/s 672 mmHg 72%
    23:00 +20°C° 0 mm 1 m/s 672 mmHg 73%

    17 Decembrie, Luni

    Timp Temperatura Precipitaţii Vânt Presiune Umiditate
    00:00 +19°C° 0 mm 1 m/s 672 mmHg 74%
    01:00 +19°C° 0 mm 1 m/s 671 mmHg 75%
    02:00 +19°C° 0 mm 1 m/s 671 mmHg 76%
    03:00 +18°C° 0 mm 1 m/s 671 mmHg 77%
    04:00 +18°C° 0 mm 1 m/s 671 mmHg 78%
    05:00 +19°C° 0 mm 1 m/s 672 mmHg 74%
    06:00 +19°C° 0 mm 1 m/s 672 mmHg 69%
    07:00 +20°C° 0 mm 1 m/s 673 mmHg 65%
    08:00 +23°C° 0 mm 1 m/s 674 mmHg 53%
    09:00 +26°C° 0 mm 1 m/s 675 mmHg 42%
    10:00 +29°C° 0 mm 1 m/s 675 mmHg 30%
    11:00 +30°C° 0 mm 1 m/s 675 mmHg 28%
    12:00 +31°C° 0 mm 1 m/s 674 mmHg 27%
    13:00 +32°C° 0 mm 2 m/s 673 mmHg 26%
    14:00 +31°C° 0 mm 2 m/s 672 mmHg 28%
    15:00 +30°C° 0 mm 2 m/s 672 mmHg 31%
    16:00 +29°C° 0 mm 2 m/s 671 mmHg 33%
    17:00 +26°C° 0 mm 1 m/s 671 mmHg 42%
    18:00 +23°C° 0 mm 1 m/s 671 mmHg 50%
    19:00 +21°C° 0 mm 1 m/s 671 mmHg 59%
    20:00 +20°C° 0 mm 1 m/s 671 mmHg 60%
    21:00 +20°C° 0 mm 1 m/s 672 mmHg 60%
    22:00 +19°C° 0 mm 1 m/s 672 mmHg 61%
    23:00 +19°C° 0 mm 1 m/s 672 mmHg 62%

    18 Decembrie, Marţi

    Timp Temperatura Precipitaţii Vânt Presiune Umiditate
    00:00 +19°C° 0 mm 1 m/s 671 mmHg 62%
    01:00 +19°C° 0 mm 1 m/s 671 mmHg 63%
    02:00 +18°C° 0 mm 1 m/s 671 mmHg 64%
    03:00 +18°C° 0 mm 1 m/s 671 mmHg 64%
    04:00 +18°C° 0 mm 1 m/s 671 mmHg 65%
    05:00 +19°C° 0 mm 1 m/s 671 mmHg 64%
    06:00 +20°C° 0 mm 1 m/s 672 mmHg 62%
    07:00 +21°C° 0 mm 1 m/s 673 mmHg 61%
    08:00 +23°C° 0 mm 1 m/s 673 mmHg 52%
    09:00 +26°C° 0 mm 1 m/s 674 mmHg 43%
    10:00 +29°C° 0 mm 1 m/s 675 mmHg 35%
    11:00 +30°C° 0 mm 1 m/s 674 mmHg 33%
    12:00 +31°C° 0 mm 1 m/s 673 mmHg 32%
    13:00 +32°C° 0 mm 1 m/s 673 mmHg 31%
    14:00 +31°C° 0 mm 1 m/s 672 mmHg 34%
    15:00 +30°C° 0 mm 1 m/s 671 mmHg 37%
    16:00 +29°C° 0 mm 1 m/s 671 mmHg 40%
    17:00 +27°C° 0 mm 1 m/s 671 mmHg 47%
    18:00 +24°C° 0 mm 1 m/s 671 mmHg 54%
    19:00 +22°C° 0 mm 1 m/s 671 mmHg 61%
    20:00 +21°C° 0 mm 1 m/s 671 mmHg 61%
    21:00 +21°C° 0 mm 1 m/s 672 mmHg 62%
    22:00 +21°C° 0 mm 1 m/s 672 mmHg 63%
    23:00 +20°C° 0 mm 1 m/s 672 mmHg 65%
    Arată mai mult